<?xml version="1.0"?>
<gpx xmlns="http://www.topografix.com/GPX/1/1" xmlns:xsi="http://www.w3.org/2001/XMLSchema-instance" version="1.1" creator="GPX RubyGem 1.0.0 -- http://dougfales.github.io/gpx/" xsi:schemaLocation="http://www.topografix.com/GPX/1/1 http://www.topografix.com/GPX/1/1/gpx.xsd">
  <metadata>
    <name/>
    <time>2026-05-07T22:22:28+00:00</time>
    <bound minlat="90.0" minlon="180.0" maxlat="-90.0" maxlon="-180.0"/>
  </metadata>
  <trk>
    <name/>
    <trkseg>
      <trkpt lat="45.74827" lon="6.77887">
        <time>1970-01-01T00:00:00+00:00</time>
        <ele>1986.0</ele>
      </trkpt>
      <trkpt lat="45.748345" lon="6.778721">
        <time>1970-01-01T00:00:00+00:00</time>
        <ele>1989.0</ele>
      </trkpt>
      <trkpt lat="45.748436" lon="6.778702">
        <time>1970-01-01T00:00:00+00:00</time>
        <ele>1988.0</ele>
      </trkpt>
      <trkpt lat="45.748713" lon="6.778371">
        <time>1970-01-01T00:00:00+00:00</time>
        <ele>1999.0</ele>
      </trkpt>
      <trkpt lat="45.748992" lon="6.778403">
        <time>1970-01-01T00:00:00+00:00</time>
        <ele>2001.0</ele>
      </trkpt>
      <trkpt lat="45.749502" lon="6.77814">
        <time>1970-01-01T00:00:00+00:00</time>
        <ele>2013.0</ele>
      </trkpt>
      <trkpt lat="45.749932" lon="6.777733">
        <time>1970-01-01T00:00:00+00:00</time>
        <ele>2034.0</ele>
      </trkpt>
      <trkpt lat="45.7506" lon="6.776849">
        <time>1970-01-01T00:00:00+00:00</time>
        <ele>2060.0</ele>
      </trkpt>
      <trkpt lat="45.75117" lon="6.776287">
        <time>1970-01-01T00:00:00+00:00</time>
        <ele>2070.0</ele>
      </trkpt>
      <trkpt lat="45.752026" lon="6.77626">
        <time>1970-01-01T00:00:00+00:00</time>
        <ele>2094.0</ele>
      </trkpt>
      <trkpt lat="45.752465" lon="6.775662">
        <time>1970-01-01T00:00:00+00:00</time>
        <ele>2129.0</ele>
      </trkpt>
      <trkpt lat="45.75295" lon="6.775224">
        <time>1970-01-01T00:00:00+00:00</time>
        <ele>2145.0</ele>
      </trkpt>
      <trkpt lat="45.753316" lon="6.774527">
        <time>1970-01-01T00:00:00+00:00</time>
        <ele>2169.0</ele>
      </trkpt>
      <trkpt lat="45.753965" lon="6.773977">
        <time>1970-01-01T00:00:00+00:00</time>
        <ele>2202.0</ele>
      </trkpt>
      <trkpt lat="45.755314" lon="6.773863">
        <time>1970-01-01T00:00:00+00:00</time>
        <ele>2263.0</ele>
      </trkpt>
      <trkpt lat="45.755686" lon="6.77377">
        <time>1970-01-01T00:00:00+00:00</time>
        <ele>2282.0</ele>
      </trkpt>
      <trkpt lat="45.75602" lon="6.773882">
        <time>1970-01-01T00:00:00+00:00</time>
        <ele>2300.0</ele>
      </trkpt>
      <trkpt lat="45.755512" lon="6.773707">
        <time>1970-01-01T00:00:00+00:00</time>
        <ele>2273.0</ele>
      </trkpt>
      <trkpt lat="45.755851" lon="6.773909">
        <time>1970-01-01T00:00:00+00:00</time>
        <ele>2292.0</ele>
      </trkpt>
      <trkpt lat="45.756249" lon="6.77395">
        <time>1970-01-01T00:00:00+00:00</time>
        <ele>2308.0</ele>
      </trkpt>
      <trkpt lat="45.756761" lon="6.773329">
        <time>1970-01-01T00:00:00+00:00</time>
        <ele>2323.0</ele>
      </trkpt>
      <trkpt lat="45.756749" lon="6.772085">
        <time>1970-01-01T00:00:00+00:00</time>
        <ele>2330.0</ele>
      </trkpt>
      <trkpt lat="45.756865" lon="6.77119">
        <time>1970-01-01T00:00:00+00:00</time>
        <ele>2358.0</ele>
      </trkpt>
      <trkpt lat="45.757437" lon="6.770148">
        <time>1970-01-01T00:00:00+00:00</time>
        <ele>2405.0</ele>
      </trkpt>
      <trkpt lat="45.758116" lon="6.770489">
        <time>1970-01-01T00:00:00+00:00</time>
        <ele>2426.0</ele>
      </trkpt>
      <trkpt lat="45.758899" lon="6.771103">
        <time>1970-01-01T00:00:00+00:00</time>
        <ele>2458.0</ele>
      </trkpt>
      <trkpt lat="45.759024" lon="6.772071">
        <time>1970-01-01T00:00:00+00:00</time>
        <ele>2482.0</ele>
      </trkpt>
      <trkpt lat="45.759172" lon="6.772439">
        <time>1970-01-01T00:00:00+00:00</time>
        <ele>2489.0</ele>
      </trkpt>
      <trkpt lat="45.759463" lon="6.77273">
        <time>1970-01-01T00:00:00+00:00</time>
        <ele>2502.0</ele>
      </trkpt>
      <trkpt lat="45.759959" lon="6.773822">
        <time>1970-01-01T00:00:00+00:00</time>
        <ele>2517.0</ele>
      </trkpt>
      <trkpt lat="45.760436" lon="6.775186">
        <time>1970-01-01T00:00:00+00:00</time>
        <ele>2507.0</ele>
      </trkpt>
      <trkpt lat="45.760631" lon="6.776797">
        <time>1970-01-01T00:00:00+00:00</time>
        <ele>2514.0</ele>
      </trkpt>
      <trkpt lat="45.761305" lon="6.778361">
        <time>1970-01-01T00:00:00+00:00</time>
        <ele>2542.0</ele>
      </trkpt>
      <trkpt lat="45.761624" lon="6.778674">
        <time>1970-01-01T00:00:00+00:00</time>
        <ele>2551.0</ele>
      </trkpt>
      <trkpt lat="45.761634" lon="6.779224">
        <time>1970-01-01T00:00:00+00:00</time>
        <ele>2540.0</ele>
      </trkpt>
      <trkpt lat="45.761975" lon="6.78033">
        <time>1970-01-01T00:00:00+00:00</time>
        <ele>2548.0</ele>
      </trkpt>
      <trkpt lat="45.762044" lon="6.780826">
        <time>1970-01-01T00:00:00+00:00</time>
        <ele>2555.0</ele>
      </trkpt>
      <trkpt lat="45.762726" lon="6.781201">
        <time>1970-01-01T00:00:00+00:00</time>
        <ele>2594.0</ele>
      </trkpt>
      <trkpt lat="45.762848" lon="6.781573">
        <time>1970-01-01T00:00:00+00:00</time>
        <ele>2608.0</ele>
      </trkpt>
      <trkpt lat="45.763198" lon="6.781597">
        <time>1970-01-01T00:00:00+00:00</time>
        <ele>2623.0</ele>
      </trkpt>
      <trkpt lat="45.763722" lon="6.782347">
        <time>1970-01-01T00:00:00+00:00</time>
        <ele>2660.0</ele>
      </trkpt>
      <trkpt lat="45.764276" lon="6.78179">
        <time>1970-01-01T00:00:00+00:00</time>
        <ele>2682.0</ele>
      </trkpt>
      <trkpt lat="45.764534" lon="6.78248">
        <time>1970-01-01T00:00:00+00:00</time>
        <ele>2700.0</ele>
      </trkpt>
      <trkpt lat="45.764948" lon="6.781608">
        <time>1970-01-01T00:00:00+00:00</time>
        <ele>2724.0</ele>
      </trkpt>
      <trkpt lat="45.764923" lon="6.782799">
        <time>1970-01-01T00:00:00+00:00</time>
        <ele>2710.0</ele>
      </trkpt>
      <trkpt lat="45.765422" lon="6.78314">
        <time>1970-01-01T00:00:00+00:00</time>
        <ele>2719.0</ele>
      </trkpt>
      <trkpt lat="45.766467" lon="6.782401">
        <time>1970-01-01T00:00:00+00:00</time>
        <ele>2787.0</ele>
      </trkpt>
      <trkpt lat="45.766628" lon="6.782871">
        <time>1970-01-01T00:00:00+00:00</time>
        <ele>2785.0</ele>
      </trkpt>
      <trkpt lat="45.767423" lon="6.783401">
        <time>1970-01-01T00:00:00+00:00</time>
        <ele>2831.0</ele>
      </trkpt>
      <trkpt lat="45.767586" lon="6.784253">
        <time>1970-01-01T00:00:00+00:00</time>
        <ele>2837.0</ele>
      </trkpt>
      <trkpt lat="45.767606" lon="6.784866">
        <time>1970-01-01T00:00:00+00:00</time>
        <ele>2834.0</ele>
      </trkpt>
      <trkpt lat="45.767756" lon="6.785352">
        <time>1970-01-01T00:00:00+00:00</time>
        <ele>2840.0</ele>
      </trkpt>
      <trkpt lat="45.768298" lon="6.78632">
        <time>1970-01-01T00:00:00+00:00</time>
        <ele>2879.0</ele>
      </trkpt>
      <trkpt lat="45.768668" lon="6.786666">
        <time>1970-01-01T00:00:00+00:00</time>
        <ele>2907.0</ele>
      </trkpt>
      <trkpt lat="45.769158" lon="6.786564">
        <time>1970-01-01T00:00:00+00:00</time>
        <ele>2934.0</ele>
      </trkpt>
      <trkpt lat="45.769356" lon="6.786833">
        <time>1970-01-01T00:00:00+00:00</time>
        <ele>2948.0</ele>
      </trkpt>
      <trkpt lat="45.769714" lon="6.787695">
        <time>1970-01-01T00:00:00+00:00</time>
        <ele>2974.0</ele>
      </trkpt>
      <trkpt lat="45.76967" lon="6.788134">
        <time>1970-01-01T00:00:00+00:00</time>
        <ele>2984.0</ele>
      </trkpt>
      <trkpt lat="45.7698" lon="6.788791">
        <time>1970-01-01T00:00:00+00:00</time>
        <ele>3003.0</ele>
      </trkpt>
      <trkpt lat="45.770465" lon="6.788896">
        <time>1970-01-01T00:00:00+00:00</time>
        <ele>3031.0</ele>
      </trkpt>
      <trkpt lat="45.770563" lon="6.789503">
        <time>1970-01-01T00:00:00+00:00</time>
        <ele>3048.0</ele>
      </trkpt>
      <trkpt lat="45.771132" lon="6.789684">
        <time>1970-01-01T00:00:00+00:00</time>
        <ele>3076.0</ele>
      </trkpt>
      <trkpt lat="45.77092" lon="6.790285">
        <time>1970-01-01T00:00:00+00:00</time>
        <ele>3075.0</ele>
      </trkpt>
      <trkpt lat="45.771126" lon="6.791874">
        <time>1970-01-01T00:00:00+00:00</time>
        <ele>3107.0</ele>
      </trkpt>
      <trkpt lat="45.771298" lon="6.79228">
        <time>1970-01-01T00:00:00+00:00</time>
        <ele>3118.0</ele>
      </trkpt>
      <trkpt lat="45.77134" lon="6.792823">
        <time>1970-01-01T00:00:00+00:00</time>
        <ele>3129.0</ele>
      </trkpt>
      <trkpt lat="45.771168" lon="6.793375">
        <time>1970-01-01T00:00:00+00:00</time>
        <ele>3131.0</ele>
      </trkpt>
      <trkpt lat="45.771878" lon="6.793805">
        <time>1970-01-01T00:00:00+00:00</time>
        <ele>3163.0</ele>
      </trkpt>
      <trkpt lat="45.772153" lon="6.794222">
        <time>1970-01-01T00:00:00+00:00</time>
        <ele>3183.0</ele>
      </trkpt>
      <trkpt lat="45.772355" lon="6.794907">
        <time>1970-01-01T00:00:00+00:00</time>
        <ele>3210.0</ele>
      </trkpt>
      <trkpt lat="45.772288" lon="6.795392">
        <time>1970-01-01T00:00:00+00:00</time>
        <ele>3219.0</ele>
      </trkpt>
      <trkpt lat="45.772582" lon="6.795578">
        <time>1970-01-01T00:00:00+00:00</time>
        <ele>3237.0</ele>
      </trkpt>
      <trkpt lat="45.772681" lon="6.796182">
        <time>1970-01-01T00:00:00+00:00</time>
        <ele>3258.0</ele>
      </trkpt>
      <trkpt lat="45.772718" lon="6.796962">
        <time>1970-01-01T00:00:00+00:00</time>
        <ele>3274.0</ele>
      </trkpt>
      <trkpt lat="45.772821" lon="6.797369">
        <time>1970-01-01T00:00:00+00:00</time>
        <ele>3285.0</ele>
      </trkpt>
      <trkpt lat="45.773036" lon="6.797048">
        <time>1970-01-01T00:00:00+00:00</time>
        <ele>3288.0</ele>
      </trkpt>
      <trkpt lat="45.773049" lon="6.797614">
        <time>1970-01-01T00:00:00+00:00</time>
        <ele>3295.0</ele>
      </trkpt>
      <trkpt lat="45.773441" lon="6.798004">
        <time>1970-01-01T00:00:00+00:00</time>
        <ele>3312.0</ele>
      </trkpt>
      <trkpt lat="45.778211" lon="6.801358">
        <time>1970-01-01T00:00:00+00:00</time>
        <ele>3702.0</ele>
      </trkpt>
      <trkpt lat="45.77898" lon="6.801817">
        <time>1970-01-01T00:00:00+00:00</time>
        <ele>3738.0</ele>
      </trkpt>
      <trkpt lat="45.779449" lon="6.801871">
        <time>1970-01-01T00:00:00+00:00</time>
        <ele>3746.0</ele>
      </trkpt>
      <trkpt lat="45.779711" lon="6.802">
        <time>1970-01-01T00:00:00+00:00</time>
        <ele>3753.0</ele>
      </trkpt>
      <trkpt lat="45.77865" lon="6.802148">
        <time>1970-01-01T00:00:00+00:00</time>
        <ele>3788.0</ele>
      </trkpt>
      <trkpt lat="45.779114" lon="6.800185">
        <time>1970-01-01T00:00:00+00:00</time>
        <ele>3598.0</ele>
      </trkpt>
      <trkpt lat="45.779377" lon="6.799822">
        <time>1970-01-01T00:00:00+00:00</time>
        <ele>3611.0</ele>
      </trkpt>
      <trkpt lat="45.779895" lon="6.800407">
        <time>1970-01-01T00:00:00+00:00</time>
        <ele>3660.0</ele>
      </trkpt>
      <trkpt lat="45.780134" lon="6.800856">
        <time>1970-01-01T00:00:00+00:00</time>
        <ele>3675.0</ele>
      </trkpt>
      <trkpt lat="45.780482" lon="6.800908">
        <time>1970-01-01T00:00:00+00:00</time>
        <ele>3678.0</ele>
      </trkpt>
      <trkpt lat="45.780462" lon="6.801633">
        <time>1970-01-01T00:00:00+00:00</time>
        <ele>3648.0</ele>
      </trkpt>
      <trkpt lat="45.780394" lon="6.802061">
        <time>1970-01-01T00:00:00+00:00</time>
        <ele>3680.0</ele>
      </trkpt>
      <trkpt lat="45.780818" lon="6.804836">
        <time>1970-01-01T00:00:00+00:00</time>
        <ele>3367.0</ele>
      </trkpt>
      <trkpt lat="45.781014" lon="6.804539">
        <time>1970-01-01T00:00:00+00:00</time>
        <ele>3390.0</ele>
      </trkpt>
      <trkpt lat="45.780813" lon="6.808847">
        <time>1970-01-01T00:00:00+00:00</time>
        <ele>3246.0</ele>
      </trkpt>
      <trkpt lat="45.780202" lon="6.809156">
        <time>1970-01-01T00:00:00+00:00</time>
        <ele>3241.0</ele>
      </trkpt>
      <trkpt lat="45.776858" lon="6.811479">
        <time>1970-01-01T00:00:00+00:00</time>
        <ele>3166.0</ele>
      </trkpt>
      <trkpt lat="45.775645" lon="6.811742">
        <time>1970-01-01T00:00:00+00:00</time>
        <ele>3153.0</ele>
      </trkpt>
      <trkpt lat="45.774781" lon="6.812522">
        <time>1970-01-01T00:00:00+00:00</time>
        <ele>3115.0</ele>
      </trkpt>
      <trkpt lat="45.77425" lon="6.816348">
        <time>1970-01-01T00:00:00+00:00</time>
        <ele>3019.0</ele>
      </trkpt>
      <trkpt lat="45.774635" lon="6.820852">
        <time>1970-01-01T00:00:00+00:00</time>
        <ele>2897.0</ele>
      </trkpt>
      <trkpt lat="45.774724" lon="6.821299">
        <time>1970-01-01T00:00:00+00:00</time>
        <ele>2869.0</ele>
      </trkpt>
      <trkpt lat="45.774457" lon="6.821215">
        <time>1970-01-01T00:00:00+00:00</time>
        <ele>2894.0</ele>
      </trkpt>
      <trkpt lat="45.77415" lon="6.821371">
        <time>1970-01-01T00:00:00+00:00</time>
        <ele>2904.0</ele>
      </trkpt>
      <trkpt lat="45.772586" lon="6.81946">
        <time>1970-01-01T00:00:00+00:00</time>
        <ele>2778.0</ele>
      </trkpt>
      <trkpt lat="45.771177" lon="6.816763">
        <time>1970-01-01T00:00:00+00:00</time>
        <ele>2705.0</ele>
      </trkpt>
      <trkpt lat="45.77098" lon="6.815894">
        <time>1970-01-01T00:00:00+00:00</time>
        <ele>2714.0</ele>
      </trkpt>
      <trkpt lat="45.766784" lon="6.81654">
        <time>1970-01-01T00:00:00+00:00</time>
        <ele>2639.0</ele>
      </trkpt>
      <trkpt lat="45.765148" lon="6.816674">
        <time>1970-01-01T00:00:00+00:00</time>
        <ele>2625.0</ele>
      </trkpt>
      <trkpt lat="45.764819" lon="6.81652">
        <time>1970-01-01T00:00:00+00:00</time>
        <ele>2621.0</ele>
      </trkpt>
      <trkpt lat="45.764539" lon="6.816712">
        <time>1970-01-01T00:00:00+00:00</time>
        <ele>2614.0</ele>
      </trkpt>
      <trkpt lat="45.764369" lon="6.816321">
        <time>1970-01-01T00:00:00+00:00</time>
        <ele>2617.0</ele>
      </trkpt>
      <trkpt lat="45.76452" lon="6.815985">
        <time>1970-01-01T00:00:00+00:00</time>
        <ele>2627.0</ele>
      </trkpt>
      <trkpt lat="45.764423" lon="6.815282">
        <time>1970-01-01T00:00:00+00:00</time>
        <ele>2651.0</ele>
      </trkpt>
      <trkpt lat="45.764164" lon="6.8147">
        <time>1970-01-01T00:00:00+00:00</time>
        <ele>2655.0</ele>
      </trkpt>
      <trkpt lat="45.763899" lon="6.814365">
        <time>1970-01-01T00:00:00+00:00</time>
        <ele>2656.0</ele>
      </trkpt>
      <trkpt lat="45.763729" lon="6.813959">
        <time>1970-01-01T00:00:00+00:00</time>
        <ele>2658.0</ele>
      </trkpt>
      <trkpt lat="45.764158" lon="6.813001">
        <time>1970-01-01T00:00:00+00:00</time>
        <ele>2701.0</ele>
      </trkpt>
      <trkpt lat="45.763171" lon="6.812939">
        <time>1970-01-01T00:00:00+00:00</time>
        <ele>2676.0</ele>
      </trkpt>
      <trkpt lat="45.762669" lon="6.81304">
        <time>1970-01-01T00:00:00+00:00</time>
        <ele>2654.0</ele>
      </trkpt>
      <trkpt lat="45.761875" lon="6.812778">
        <time>1970-01-01T00:00:00+00:00</time>
        <ele>2620.0</ele>
      </trkpt>
      <trkpt lat="45.760159" lon="6.811822">
        <time>1970-01-01T00:00:00+00:00</time>
        <ele>2534.0</ele>
      </trkpt>
      <trkpt lat="45.759241" lon="6.811055">
        <time>1970-01-01T00:00:00+00:00</time>
        <ele>2504.0</ele>
      </trkpt>
      <trkpt lat="45.758689" lon="6.810715">
        <time>1970-01-01T00:00:00+00:00</time>
        <ele>2494.0</ele>
      </trkpt>
      <trkpt lat="45.758411" lon="6.810421">
        <time>1970-01-01T00:00:00+00:00</time>
        <ele>2506.0</ele>
      </trkpt>
      <trkpt lat="45.758273" lon="6.810004">
        <time>1970-01-01T00:00:00+00:00</time>
        <ele>2515.0</ele>
      </trkpt>
      <trkpt lat="45.75774" lon="6.809538">
        <time>1970-01-01T00:00:00+00:00</time>
        <ele>2519.0</ele>
      </trkpt>
      <trkpt lat="45.75715" lon="6.809262">
        <time>1970-01-01T00:00:00+00:00</time>
        <ele>2509.0</ele>
      </trkpt>
      <trkpt lat="45.756677" lon="6.809237">
        <time>1970-01-01T00:00:00+00:00</time>
        <ele>2506.0</ele>
      </trkpt>
      <trkpt lat="45.756074" lon="6.809008">
        <time>1970-01-01T00:00:00+00:00</time>
        <ele>2521.0</ele>
      </trkpt>
      <trkpt lat="45.755632" lon="6.808656">
        <time>1970-01-01T00:00:00+00:00</time>
        <ele>2522.0</ele>
      </trkpt>
      <trkpt lat="45.755304" lon="6.8085">
        <time>1970-01-01T00:00:00+00:00</time>
        <ele>2519.0</ele>
      </trkpt>
      <trkpt lat="45.754887" lon="6.80805">
        <time>1970-01-01T00:00:00+00:00</time>
        <ele>2514.0</ele>
      </trkpt>
      <trkpt lat="45.754033" lon="6.807631">
        <time>1970-01-01T00:00:00+00:00</time>
        <ele>2520.0</ele>
      </trkpt>
      <trkpt lat="45.753493" lon="6.806033">
        <time>1970-01-01T00:00:00+00:00</time>
        <ele>2544.0</ele>
      </trkpt>
      <trkpt lat="45.753558" lon="6.8054">
        <time>1970-01-01T00:00:00+00:00</time>
        <ele>2549.0</ele>
      </trkpt>
      <trkpt lat="45.753782" lon="6.804286">
        <time>1970-01-01T00:00:00+00:00</time>
        <ele>2561.0</ele>
      </trkpt>
      <trkpt lat="45.75373" lon="6.803813">
        <time>1970-01-01T00:00:00+00:00</time>
        <ele>2558.0</ele>
      </trkpt>
      <trkpt lat="45.754515" lon="6.802455">
        <time>1970-01-01T00:00:00+00:00</time>
        <ele>2564.0</ele>
      </trkpt>
      <trkpt lat="45.754654" lon="6.801963">
        <time>1970-01-01T00:00:00+00:00</time>
        <ele>2560.0</ele>
      </trkpt>
      <trkpt lat="45.754984" lon="6.801812">
        <time>1970-01-01T00:00:00+00:00</time>
        <ele>2567.0</ele>
      </trkpt>
      <trkpt lat="45.753422" lon="6.799155">
        <time>1970-01-01T00:00:00+00:00</time>
        <ele>2504.0</ele>
      </trkpt>
      <trkpt lat="45.75281" lon="6.79848">
        <time>1970-01-01T00:00:00+00:00</time>
        <ele>2495.0</ele>
      </trkpt>
      <trkpt lat="45.752012" lon="6.794161">
        <time>1970-01-01T00:00:00+00:00</time>
        <ele>2302.0</ele>
      </trkpt>
      <trkpt lat="45.750826" lon="6.790622">
        <time>1970-01-01T00:00:00+00:00</time>
        <ele>2198.0</ele>
      </trkpt>
      <trkpt lat="45.750439" lon="6.790007">
        <time>1970-01-01T00:00:00+00:00</time>
        <ele>2197.0</ele>
      </trkpt>
      <trkpt lat="45.74943" lon="6.785604">
        <time>1970-01-01T00:00:00+00:00</time>
        <ele>1999.0</ele>
      </trkpt>
      <trkpt lat="45.747161" lon="6.784562">
        <time>1970-01-01T00:00:00+00:00</time>
        <ele>1945.0</ele>
      </trkpt>
      <trkpt lat="45.745785" lon="6.78339">
        <time>1970-01-01T00:00:00+00:00</time>
        <ele>1916.0</ele>
      </trkpt>
      <trkpt lat="45.745393" lon="6.78274">
        <time>1970-01-01T00:00:00+00:00</time>
        <ele>1908.0</ele>
      </trkpt>
      <trkpt lat="45.74272" lon="6.780463">
        <time>1970-01-01T00:00:00+00:00</time>
        <ele>1954.0</ele>
      </trkpt>
      <trkpt lat="45.741442" lon="6.78161">
        <time>1970-01-01T00:00:00+00:00</time>
        <ele>1898.0</ele>
      </trkpt>
      <trkpt lat="45.740944" lon="6.780961">
        <time>1970-01-01T00:00:00+00:00</time>
        <ele>1890.0</ele>
      </trkpt>
      <trkpt lat="45.740576" lon="6.781037">
        <time>1970-01-01T00:00:00+00:00</time>
        <ele>1878.0</ele>
      </trkpt>
    </trkseg>
  </trk>
</gpx>
